Theta_e
333 333 334 335 336 333 328 326 323 318 319 320 320 320 320 321 323 323 324 324 325 326 327 328 327 324 322 323 326 329 329 328 328 327 327 328 328 328 328 327 327 326 326 325 325 326 327 325 323 323 320 316 317 317 315 321 321 318 322 324 324 324 325 326 324 320 317 316 315 312 310 307 305 305 304 302 301 302 305 306 308 311 313 314 314
333 333 334 335 335 334 330 326 322 318 318 320 321 321 320 320 322 324 326 327 328 329 329 328 328 326 324 322 324 330 330 329 329 327 326 328 328 328 328 327 328 326 326 325 324 327 328 327 326 326 324 319 319 316 311 319 322 317 319 323 324 324 325 327 324 321 318 315 315 313 311 307 304 304 303 302 301 304 307 306 305 308 312 314 314
334 334 335 335 335 335 332 327 323 319 318 319 322 322 322 322 323 325 327 328 328 328 328 328 328 328 327 325 325 329 330 330 330 328 326 327 328 328 328 328 328 327 326 325 325 327 329 329 328 327 326 324 322 320 313 315 321 318 318 322 323 322 324 326 324 322 319 317 315 314 311 308 305 303 303 302 300 303 305 305 305 307 312 314 313
334 335 334 334 335 334 331 329 324 321 319 318 320 322 323 324 325 326 327 327 327 327 328 328 329 329 329 328 328 328 329 330 330 329 327 327 329 328 328 328 328 328 327 326 325 326 328 329 330 328 328 326 324 324 320 317 316 316 319 322 322 321 323 326 325 323 321 318 316 315 313 308 305 303 302 302 300 300 302 304 304 306 311 313 313
334 334 334 333 334 333 331 330 326 323 321 319 319 321 322 323 324 325 325 325 325 326 328 329 330 330 330 329 328 329 329 330 330 329 329 328 328 329 329 329 329 329 328 327 326 326 327 328 329 330 328 327 326 325 325 322 316 315 319 323 322 320 322 326 326 324 321 319 317 315 314 310 305 303 302 302 300 299 301 303 304 304 308 311 313
333 333 334 334 334 334 333 331 328 324 323 320 319 319 320 321 322 323 323 325 327 328 330 330 330 330 331 329 328 329 329 330 330 329 329 328 329 329 329 329 329 329 329 328 327 326 326 327 328 329 329 328 327 326 325 325 321 319 319 321 321 320 321 326 326 325 322 319 318 316 314 312 307 303 303 301 300 298 300 303 304 305 306 307 310
334 334 334 334 334 335 335 333 330 326 323 322 322 322 322 322 322 324 326 327 330 332 332 332 331 331 331 330 329 328 329 329 329 329 329 328 328 328 329 329 329 329 329 329 328 327 326 327 327 328 329 328 328 327 326 326 325 323 323 322 321 319 319 324 326 325 323 319 318 317 315 313 309 304 302 302 300 298 300 302 305 307 307 307 307
332 333 335 335 334 335 335 334 333 330 329 325 325 326 327 327 326 327 329 331 331 332 332 332 332 332 331 331 329 328 329 329 328 328 328 329 329 328 329 329 329 329 329 329 329 328 327 327 327 327 328 327 327 327 327 327 326 325 325 323 322 321 318 320 326 327 324 321 318 318 317 314 311 306 302 302 300 299 299 301 303 306 307 309 310
330 331 333 334 334 335 334 335 334 333 333 329 328 329 328 328 329 328 329 330 330 330 330 332 332 332 332 331 329 328 328 329 329 328 329 329 329 329 329 329 329 329 329 329 329 329 328 327 327 327 327 327 326 327 326 327 327 326 326 324 323 323 320 318 323 327 327 325 322 320 317 315 312 308 304 302 301 299 299 300 301 302 304 309 311
330 330 332 332 333 333 334 334 334 334 333 331 332 332 329 328 330 330 329 329 330 330 330 331 331 331 331 330 329 328 328 329 329 330 330 330 329 329 329 329 329 329 330 329 329 329 329 328 327 327 327 326 326 326 326 326 327 327 327 326 324 323 323 320 320 325 328 327 325 322 318 316 314 311 306 303 301 299 299 300 300 301 304 308 311
329 329 329 329 330 331 333 333 333 333 331 330 330 331 330 330 332 332 331 331 331 330 328 329 330 330 330 331 330 328 327 328 329 330 330 330 330 330 329 329 329 329 330 329 330 330 330 330 328 328 327 326 326 325 326 325 326 327 327 328 327 325 327 324 320 322 327 327 326 323 319 316 315 313 309 304 302 300 300 300 300 303 305 307 309
327 327 326 326 327 326 327 328 329 328 327 328 328 329 330 331 332 332 332 332 331 328 327 329 330 329 328 330 331 329 328 327 328 329 330 330 330 330 330 330 329 329 330 330 330 330 330 330 329 329 328 327 326 325 326 326 325 326 326 327 328 327 327 327 323 320 323 327 327 325 319 315 315 314 312 307 303 301 301 301 302 303 305 307 309
323 324 324 324 325 324 323 325 326 325 327 328 328 329 329 329 331 332 332 332 330 327 329 331 330 329 328 329 329 329 329 328 328 328 329 329 329 330 330 329 330 329 329 329 329 328 328 329 330 330 329 329 328 326 325 326 325 325 325 325 327 328 327 327 327 323 321 324 328 326 321 317 315 315 314 310 305 302 302 303 303 303 304 307 308
317 320 321 322 324 325 324 325 325 325 327 327 326 329 330 329 329 330 331 331 331 330 331 332 331 329 328 329 330 330 330 329 329 329 329 329 329 329 329 329 329 328 329 329 328 328 327 327 328 329 330 330 330 329 327 326 326 325 325 325 325 327 328 327 328 327 323 322 326 327 325 320 316 315 315 313 308 303 302 303 302 302 304 306 307
315 318 320 322 323 324 324 324 324 325 326 326 326 328 330 329 329 330 329 329 330 330 330 331 331 330 329 330 331 331 331 329 328 329 329 329 329 329 329 329 329 328 328 328 328 327 327 326 326 327 328 329 330 330 329 328 327 326 325 325 325 325 327 328 328 328 327 325 326 327 327 323 318 316 316 314 311 305 303 302 300 299 303 305 306
316 319 320 321 321 321 322 323 323 323 324 325 324 325 327 328 328 329 329 329 330 329 329 329 329 330 331 331 329 328 331 329 326 328 328 329 329 329 329 329 329 328 327 327 326 326 327 327 327 326 326 327 328 329 330 329 328 328 326 326 326 325 325 327 327 328 328 328 327 327 327 325 321 318 316 315 312 307 304 302 299 298 300 301 302
317 318 318 319 318 318 320 322 322 322 322 322 322 322 324 325 326 328 329 330 331 331 330 329 328 329 330 331 330 331 332 328 326 328 328 327 328 327 328 328 328 328 327 327 326 326 325 326 327 327 326 326 327 328 329 330 330 329 328 327 327 326 325 326 326 326 327 327 327 327 327 327 325 322 319 316 313 310 305 302 299 297 297 298 299
316 316 317 317 318 318 319 320 321 321 321 321 321 321 322 322 323 324 326 327 329 331 330 329 330 329 328 330 331 332 331 328 328 329 328 327 327 327 327 327 327 327 327 326 326 326 325 325 325 325 325 326 326 328 328 328 329 329 330 329 328 327 326 326 326 326 326 326 327 327 328 328 327 326 322 318 314 312 307 303 300 297 296 296 298
316 317 317 317 318 318 319 319 320 320 320 320 320 320 320 320 320 322 323 324 326 327 327 328 329 329 328 328 328 329 328 328 329 330 329 328 327 327 328 328 328 328 327 327 327 327 326 326 326 326 325 325 326 327 327 328 328 329 329 329 329 328 327 327 326 326 326 326 326 327 328 327 327 327 326 321 316 314 310 304 301 299 297 295 296
316 317 317 318 317 317 318 318 316 315 315 316 316 316 316 317 317 318 319 320 321 323 323 324 325 326 326 327 327 328 328 328 328 328 329 329 327 327 327 326 327 327 327 328 327 327 327 327 327 327 326 326 326 326 327 327 327 328 328 329 329 328 328 327 326 327 326 326 326 326 326 327 327 327 328 325 319 316 313 307 302 299 298 296 295
317 317 316 315 313 313 315 314 310 309 309 309 309 309 309 310 312 313 315 316 317 318 319 319 320 321 322 323 324 325 327 328 328 327 327 328 327 327 326 325 325 325 326 327 327 327 327 328 327 327 327 326 326 326 326 327 327 328 328 328 328 328 328 328 327 327 327 327 326 326 326 327 328 326 326 327 323 317 314 310 303 300 298 297 295
316 316 315 311 307 308 309 307 306 306 305 304 304 304 305 306 307 308 310 312 313 314 316 316 317 318 318 319 321 322 324 325 325 324 325 327 327 326 326 327 326 326 325 325 325 325 326 326 327 327 328 328 327 327 327 327 327 327 327 328 328 328 327 328 327 327 327 327 327 326 325 326 327 327 326 327 324 318 315 311 305 301 299 298 296
315 316 314 310 306 306 305 305 305 305 305 303 303 304 305 305 306 306 308 309 310 311 312 313 314 315 315 316 317 319 320 321 321 321 323 324 325 325 325 326 326 326 325 323 322 323 324 324 324 325 327 328 328 328 328 327 328 327 327 327 328 328 328 328 328 328 327 327 327 327 326 325 325 327 327 326 324 320 317 313 306 302 300 299 298
313 313 313 310 306 305 305 306 306 306 306 304 303 303 303 304 305 305 306 306 307 308 309 310 310 311 312 312 314 315 316 317 318 320 321 322 323 324 324 324 324 325 324 324 323 322 322 322 322 323 325 326 327 328 328 327 327 328 327 327 327 328 328 328 328 328 328 328 328 327 327 326 325 326 326 326 325 323 320 317 311 305 302 301 300
308 310 310 309 306 306 307 307 308 308 308 305 304 303 303 304 304 304 305 305 306 306 307 307 308 309 309 310 310 311 312 312 313 316 317 319 320 322 322 323 324 325 325 325 325 324 323 322 322 322 323 324 325 326 326 326 327 328 328 328 328 328 328 328 328 328 328 328 328 328 327 326 325 325 326 326 325 325 323 320 316 310 305 303 302
306 307 308 308 307 307 309 309 309 309 309 307 304 303 304 304 304 304 304 305 305 305 305 306 306 306 306 307 307 308 308 309 309 311 312 313 315 317 319 320 322 323 324 325 326 326 325 324 323 322 322 322 322 323 323 324 325 327 328 328 329 329 328 328 328 328 328 328 328 328 328 328 326 325 326 326 326 325 324 322 318 313 309 306 303
306 307 308 308 308 309 310 311 311 310 310 307 304 304 305 304 304 304 304 304 304 304 304 304 304 304 304 304 304 305 305 305 306 307 308 308 310 311 314 318 320 321 322 324 325 325 326 326 324 322 321 321 321 322 323 322 322 325 328 329 329 329 328 328 328 328 328 328 328 328 328 328 327 326 325 326 326 326 325 323 319 315 311 309 306
307 308 308 308 309 310 311 312 312 311 311 307 305 305 306 305 304 304 304 304 304 304 304 304 304 304 304 303 304 303 303 303 303 304 305 306 307 308 310 315 318 319 319 320 322 323 323 325 325 323 322 321 321 321 323 323 323 325 327 328 328 328 328 328 328 327 327 327 327 328 328 328 328 327 326 326 325 326 325 324 322 318 313 311 308
307 308 308 309 310 311 313 313 312 311 310 307 305 306 306 305 304 304 304 304 304 304 304 304 304 303 303 302 303 303 303 303 303 303 304 304 305 306 307 310 314 317 318 318 320 320 321 322 323 322 322 322 322 322 322 322 322 323 324 325 326 327 327 327 327 326 326 327 327 327 328 328 328 328 327 326 325 325 325 324 324 322 317 313 309
308 309 310 311 311 313 314 313 312 311 310 307 306 306 306 305 305 304 305 304 304 304 304 303 303 302 302 302 302 302 302 302 302 303 303 304 305 305 306 307 309 314 317 318 318 319 320 320 321 322 323 322 322 321 322 322 321 321 321 323 324 324 326 326 326 326 325 325 327 327 328 327 328 328 328 327 326 326 325 325 325 324 322 317 311
308 309 310 312 312 313 313 312 312 310 309 307 307 307 306 305 305 305 304 304 304 303 303 302 302 302 301 301 301 301 301 302 302 303 303 304 304 304 305 305 306 309 313 316 317 317 318 320 320 321 321 321 321 321 321 322 322 322 322 322 322 323 324 324 324 325 325 324 325 327 328 327 327 328 328 327 326 326 325 325 325 325 324 322 317
309 309 311 312 312 313 313 312 311 309 308 307 307 306 306 305 305 304 304 303 303 303 302 302 302 302 301 301 301 301 301 301 302 302 302 303 303 304 304 304 305 306 308 312 315 315 316 317 317 318 319 319 320 321 322 321 322 323 323 323 323 323 323 322 322 323 324 325 325 327 327 327 327 327 328 328 326 325 325 325 325 325 324 324 322
310 310 311 312 312 312 312 311 310 308 307 307 306 306 306 305 304 304 303 303 302 302 301 301 301 301 301 301 301 301 301 301 301 302 302 302 303 303 304 304 305 305 306 308 311 313 313 313 315 316 316 317 317 319 321 322 322 323 323 324 324 325 324 323 322 323 325 325 326 326 327 327 327 327 328 329 327 324 324 325 325 325 324 324 324
312 311 311 312 312 312 311 310 308 306 306 307 306 306 306 305 304 303 302 302 301 301 300 300 300 300 300 300 301 301 301 301 301 302 302 302 302 302 303 304 304 304 304 305 307 309 310 310 312 313 314 316 317 319 320 322 322 322 323 324 324 325 325 324 325 325 325 325 325 325 326 327 327 328 328 328 328 327 325 325 325 324 324 324 324
312 312 311 312 311 311 310 308 306 306 307 307 307 306 306 304 303 302 301 301 300 300 299 299 298 298 298 299 299 300 301 301 301 301 302 301 301 302 302 302 303 303 303 303 304 306 308 308 309 311 313 314 315 316 317 319 320 320 322 323 324 325 325 325 325 325 325 325 324 325 325 326 326 328 327 326 326 327 326 326 325 324 324 324 324
312 312 312 311 311 310 308 307 306 306 307 307 306 306 304 303 302 301 301 300 300 299 299 298 298 297 298 298 298 299 300 301 301 301 301 301 301 302 302 302 302 302 302 303 303 305 306 307 308 309 310 310 311 313 315 316 317 318 320 322 322 323 324 325 325 325 325 324 324 324 325 325 326 326 327 327 326 327 327 326 325 324 325 325 324
313 312 312 311 310 309 307 306 306 306 307 307 306 304 302 301 301 301 300 299 299 299 298 298 298 298 298 298 298 298 299 299 300 300 300 300 301 301 301 302 302 302 302 303 303 304 304 305 306 306 306 307 308 310 312 314 316 317 318 319 319 320 321 323 323 324 324 324 324 324 324 325 326 325 326 326 327 327 327 326 325 325 325 325 324
313 312 311 311 309 307 306 306 306 307 307 306 304 302 301 301 300 299 299 299 298 298 298 298 298 298 298 298 298 298 298 298 298 298 298 298 299 300 300 301 301 302 302 302 303 303 303 303 303 304 305 305 307 308 310 312 315 315 316 317 317 317 319 321 321 322 323 324 324 324 324 324 325 325 325 325 326 327 326 326 325 325 326 325 324
313 312 311 309 308 307 307 307 307 307 305 304 302 301 300 300 299 299 298 298 297 297 297 297 297 297 297 297 298 298 298 298 297 297 297 297 298 298 298 299 299 300 300 301 301 301 301 301 302 303 304 305 306 307 309 311 312 314 314 315 315 316 318 319 319 320 321 322 323 323 323 324 324 325 325 325 325 325 325 325 325 325 326 325 325
312 311 310 308 308 307 308 307 306 305 303 302 301 300 300 299 298 297 296 296 296 295 295 296 296 296 296 297 297 297 297 297 297 297 297 297 297 297 297 297 297 298 298 299 299 300 300 301 301 302 303 304 305 305 306 308 311 313 313 314 316 316 316 317 318 319 320 321 322 323 323 324 323 323 324 324 324 324 324 323 323 324 325 325 324
311 310 309 308 308 308 307 305 304 303 302 301 300 299 298 296 294 293 292 292 293 293 293 293 294 294 295 295 296 296 296 297 297 297 297 297 297 296 296 296 296 297 297 298 299 299 300 301 301 302 303 303 304 304 305 307 310 312 313 314 315 315 314 315 316 318 319 320 321 322 323 323 323 322 322 323 323 324 323 322 321 322 323 324 323
310 310 309 308 308 307 306 304 303 302 301 301 300 297 295 292 291 290 290 291 291 291 292 292 292 292 293 293 294 294 295 296 296 296 296 296 296 296 296 296 296 296 296 297 297 298 299 300 301 302 302 302 303 303 304 306 307 309 310 311 312 313 313 314 315 316 317 318 319 319 320 321 321 321 321 321 321 321 321 320 320 320 322 323 323
309 309 309 309 308 306 305 303 302 302 301 299 297 294 292 291 290 290 290 290 291 291 291 291 291 292 292 292 292 293 293 294 295 295 295 295 295 295 295 295 295 296 296 296 296 297 297 298 299 300 301 302 302 303 303 304 305 306 307 308 310 311 313 313 314 315 315 315 316 317 318 318 319 319 319 319 319 319 319 319 318 318 319 321 321
309 309 309 308 306 304 303 303 302 301 300 298 295 293 291 291 290 290 290 290 290 291 291 291 291 291 292 292 292 292 292 293 293 294 294 295 295 295 295 295 295 295 295 295 296 296 297 297 298 298 299 300 301 301 302 302 303 304 305 306 308 310 312 312 312 313 314 314 314 315 316 316 316 317 317 317 317 317 317 318 318 317 317 318 318
310 309 308 306 305 304 303 303 302 301 299 296 293 292 292 291 290 290 290 290 290 290 290 290 290 291 291 291 292 292 292 292 293 293 293 294 294 294 294 294 294 295 295 295 295 295 295 296 296 297 298 298 299 300 301 301 302 303 304 305 306 307 309 310 311 312 312 312 313 313 314 315 315 315 316 315 315 315 315 316 316 316 315 316 316
310 309 307 305 304 304 303 303 302 300 298 295 293 292 292 292 291 291 290 290 290 290 290 290 290 290 291 291 291 291 292 292 292 292 293 293 293 294 294 294 294 294 294 295 295 295 295 295 295 296 297 297 298 299 299 300 301 302 303 304 305 306 308 309 309 309 310 311 311 312 313 313 314 314 314 313 312 313 313 313 313 313 313 313 314
309 308 306 305 304 304 303 302 302 299 296 294 293 293 293 292 291 291 291 290 290 290 290 290 290 290 291 291 291 291 291 291 291 292 292 292 293 293 293 294 294 294 294 294 294 294 294 294 295 295 296 296 297 298 298 299 300 301 301 302 303 305 306 306 306 306 307 309 310 311 312 312 313 312 313 312 311 311 311 310 310 311 311 312 312
308 307 306 305 304 303 303 302 300 297 295 294 293 293 293 292 291 291 291 290 290 290 290 290 290 290 291 291 291 291 291 291 291 291 291 292 292 293 293 293 293 293 294 294 294 294 294 294 294 294 295 295 296 296 297 298 298 299 300 300 301 302 303 304 304 305 305 307 308 309 310 311 311 311 310 310 309 309 309 308 308 308 309 309 310
308 307 306 305 304 303 302 300 297 296 295 294 294 293 294 293 292 291 291 290 290 290 290 290 290 290 290 291 291 291 291 291 291 291 291 291 292 292 293 293 293 293 294 294 294 294 294 294 294 294 294 294 294 295 295 296 296 297 297 298 299 300 301 302 303 303 304 306 307 308 309 310 310 309 308 307 308 308 307 307 306 306 306 306 306
307 306 305 304 303 302 300 297 296 296 296 295 294 294 294 293 292 291 291 290 290 290 290 290 290 290 290 290 290 290 291 291 290 290 290 290 291 291 291 292 292 292 293 293 293 293 294 294 294 294 294 294 294 294 294 295 295 296 296 297 297 298 300 300 301 303 304 305 306 307 308 309 309 308 306 304 304 304 304 304 304 303 303 303 302
306 305 305 304 302 300 298 297 296 296 296 296 295 295 294 293 292 291 291 291 291 290 290 290 290 290 290 290 290 290 290 290 290 290 290 290 290 290 290 291 291 291 292 292 292 292 293 293 293 293 294 294 294 294 294 295 295 296 296 297 297 298 299 300 300 302 304 305 306 307 308 308 307 307 306 304 303 300 299 300 300 300 300 301 300
Wind_Speed
14 13 12 14 16 15 13 13 11 9 8 5 5 7 8 10 11 10 9 9 9 7 6 4 4 6 11 12 11 9 9 9 9 9 8 8 7 5 5 4 3 3 3 2 2 3 3 2 2 2 1 1 2 3 2 4 4 4 6 6 6 6 6 3 2 0 2 3 4 6 6 6 6 6 6 6 6 6 7 7 8 8 9 11 12
16 15 14 15 17 18 17 16 14 12 10 7 6 6 7 10 10 9 9 8 7 6 4 3 3 4 7 11 12 11 9 9 8 9 9 8 8 7 6 5 5 4 4 3 3 4 5 4 3 4 3 2 2 3 2 5 4 4 7 7 5 7 7 4 3 1 1 2 3 5 5 6 5 5 5 5 5 6 6 7 7 8 8 10 11
17 14 14 16 17 21 20 19 17 15 13 10 10 9 9 9 9 9 8 7 5 3 3 4 4 4 6 9 12 12 11 10 9 9 10 9 9 8 7 7 7 6 5 4 4 5 6 6 5 5 4 3 2 2 2 4 5 5 7 6 6 8 8 5 4 3 1 1 2 4 5 5 5 4 4 4 4 4 5 6 6 7 8 8 9
15 10 10 13 17 22 22 21 19 17 15 13 12 12 11 11 10 9 7 5 4 4 5 6 6 6 6 9 11 13 12 11 10 10 11 11 10 10 9 9 9 8 7 6 5 6 6 6 7 6 5 4 3 2 1 3 3 6 7 5 6 7 8 6 4 4 2 2 2 3 4 4 4 4 4 4 4 4 4 5 6 6 7 8 9
11 8 9 13 16 20 22 23 22 19 17 16 15 14 13 13 11 10 9 7 7 7 8 8 7 7 7 9 11 13 13 12 12 11 12 12 11 11 11 11 11 10 10 9 8 8 7 7 7 7 6 4 3 2 3 3 2 3 6 6 6 8 9 6 4 5 4 3 2 2 3 4 4 4 4 3 3 3 3 4 5 5 6 7 8
8 6 9 15 18 20 21 23 22 21 19 18 17 16 15 14 12 11 10 10 9 9 10 10 9 8 7 9 11 13 13 13 12 11 11 12 12 12 12 13 13 13 12 11 10 10 9 8 8 8 7 5 5 4 4 5 3 3 5 6 6 8 10 7 5 5 5 4 3 3 3 3 3 4 4 3 3 2 3 4 4 5 5 6 7
7 6 7 13 17 20 22 22 21 22 21 20 19 17 16 15 14 13 12 10 9 8 9 10 10 10 9 10 13 14 15 15 13 12 12 13 13 13 13 13 14 14 14 13 12 12 11 10 9 9 10 8 6 6 5 6 6 4 5 6 6 7 9 8 5 6 6 6 5 4 3 2 3 3 4 3 3 2 2 3 4 5 5 5 6
6 6 6 9 13 18 21 20 21 23 23 21 20 19 17 15 14 13 11 10 9 9 9 10 11 11 11 12 14 17 18 17 16 14 13 14 14 14 14 14 14 15 15 15 14 13 13 13 12 11 12 11 9 8 7 6 7 6 6 6 6 6 8 9 7 6 7 7 7 6 5 2 2 3 4 3 3 2 1 2 3 4 4 4 5
6 5 4 7 10 12 13 16 20 23 23 22 22 21 17 15 16 15 12 10 10 11 11 11 11 11 12 13 15 18 20 19 18 17 16 15 15 15 15 15 15 15 16 16 16 15 15 14 14 13 14 13 12 10 9 7 8 8 7 7 7 7 8 8 8 7 8 8 8 8 7 5 2 3 4 4 3 2 1 1 2 3 3 4 5
5 4 4 5 7 8 9 10 13 17 21 21 21 21 20 19 18 17 15 14 14 13 11 10 10 10 11 13 15 18 21 21 21 19 19 18 17 17 16 15 15 16 16 16 16 16 16 16 15 15 15 15 14 13 12 10 9 9 8 8 7 7 7 8 9 9 9 9 9 9 9 7 3 3 5 4 4 3 2 1 2 2 3 4 5
5 5 5 4 4 6 7 7 8 10 9 9 10 12 17 21 19 17 16 15 14 12 10 9 9 10 10 12 14 17 21 23 23 23 22 21 20 19 18 18 17 16 16 16 16 17 17 17 17 17 17 16 15 15 15 13 11 10 10 9 9 8 8 9 9 10 11 11 11 10 11 10 5 4 5 5 5 4 3 2 2 3 3 4 5
3 4 4 5 4 4 2 3 5 5 5 6 6 5 7 13 17 18 14 12 12 12 10 9 10 11 12 13 13 14 19 22 24 25 25 24 23 23 22 21 19 18 17 17 16 17 17 17 18 18 18 18 17 16 16 16 15 13 12 11 10 10 10 11 11 10 12 14 13 11 13 12 8 5 6 6 6 5 4 3 3 4 4 4 5
2 3 4 5 6 5 3 3 3 3 4 3 4 4 3 6 11 14 10 10 11 11 10 8 8 10 10 12 14 14 15 19 22 24 25 25 25 24 24 23 22 20 19 18 17 17 17 17 18 19 19 19 19 19 18 18 18 16 15 14 12 11 11 13 13 11 12 15 15 14 13 13 10 8 6 7 7 6 6 5 4 5 5 5 5
2 2 3 4 6 6 5 5 5 4 3 4 3 2 2 2 5 7 7 8 11 11 10 7 4 4 3 7 11 13 14 16 19 22 23 24 25 25 25 25 24 22 21 20 19 18 17 17 18 18 19 20 20 21 21 21 20 19 18 17 15 14 13 13 14 14 13 14 16 16 15 15 13 11 8 8 8 7 7 6 5 5 5 5 5
4 3 3 4 5 6 7 8 8 8 7 7 5 3 2 1 1 1 2 5 7 8 9 8 5 2 1 2 3 5 8 10 13 18 21 23 24 25 26 26 25 24 23 23 22 20 19 19 19 19 19 20 21 22 23 23 23 22 20 19 18 17 16 15 15 16 16 15 17 18 17 16 15 14 11 10 9 9 8 7 6 6 6 6 6
5 5 5 5 5 6 6 7 9 9 9 10 10 9 5 1 2 3 3 4 3 2 3 5 7 4 2 1 1 1 3 5 11 16 16 18 22 24 25 26 25 24 24 24 23 22 21 21 21 21 20 21 21 23 24 25 25 25 24 22 21 20 19 17 16 16 17 16 17 19 19 18 16 15 14 12 11 10 10 8 7 6 6 6 6
6 6 6 6 6 6 6 6 8 9 9 11 12 12 9 6 5 6 6 6 5 4 3 2 6 7 5 2 1 1 1 2 8 11 11 12 14 17 20 22 23 23 23 23 23 22 21 22 23 23 23 23 23 23 24 25 26 27 27 25 24 22 21 20 18 16 16 17 17 19 21 20 19 17 16 15 14 12 11 10 8 7 7 7 7
5 5 6 6 6 7 6 6 6 8 8 9 10 11 10 9 8 7 7 6 6 6 6 4 4 4 4 4 3 3 2 3 3 3 9 11 7 6 9 11 13 15 17 19 19 20 19 20 22 23 24 25 24 25 25 25 26 27 28 27 26 25 22 21 20 17 17 17 17 18 20 21 20 20 18 16 16 15 13 12 9 8 7 7 7
5 6 6 6 7 7 7 7 7 8 7 7 9 10 10 10 9 8 8 7 6 7 7 6 6 5 3 1 2 2 3 4 3 2 6 7 7 10 10 8 8 9 10 12 13 15 15 17 20 22 24 25 24 25 25 25 25 26 27 27 27 27 25 23 21 19 17 17 17 18 20 20 21 22 21 19 18 17 16 14 11 10 9 8 8
5 6 7 6 6 6 6 7 8 9 8 9 10 10 10 10 9 8 9 9 9 8 8 8 8 7 5 4 3 3 1 6 8 6 4 3 7 12 11 11 11 10 10 10 10 11 12 13 16 18 20 22 22 23 24 24 24 25 25 26 26 27 26 25 24 22 19 18 17 18 20 21 21 23 23 21 20 19 18 16 15 12 10 9 8
4 4 5 6 7 7 7 8 11 12 11 12 11 11 11 10 10 10 9 10 11 9 9 9 9 8 7 6 6 4 1 3 6 6 5 4 4 4 9 14 13 11 11 11 11 11 13 14 15 16 16 16 17 18 19 21 21 21 22 23 24 25 26 26 25 24 22 20 18 17 19 21 22 23 24 24 24 22 20 18 17 15 13 11 9
3 3 5 6 8 9 9 10 11 12 12 13 13 13 13 13 12 11 10 10 10 10 10 10 9 8 8 7 7 6 4 2 3 5 4 5 4 3 7 9 9 12 15 15 16 17 16 17 17 18 18 17 16 16 17 18 18 19 18 19 21 22 23 25 26 25 24 23 21 18 18 21 23 23 22 25 25 23 22 21 19 17 15 13 10
3 3 4 5 7 8 9 9 10 11 13 14 14 14 15 15 14 13 12 11 11 9 9 9 8 8 8 9 9 8 6 4 4 5 4 4 5 4 6 8 9 13 16 16 18 19 18 18 17 18 18 19 19 18 18 18 19 18 18 18 19 19 19 21 25 26 25 25 24 21 18 20 24 24 22 24 25 22 22 22 21 19 17 15 12
4 3 3 3 4 5 6 7 9 10 13 14 14 14 15 15 16 16 14 14 12 11 10 10 9 9 9 9 8 8 7 6 6 5 5 5 6 5 6 9 8 11 15 17 16 16 17 18 17 17 16 16 17 18 18 19 19 18 18 18 19 19 18 18 20 24 25 26 25 24 22 20 23 25 24 24 24 23 22 22 22 22 20 17 15
7 5 4 3 3 2 4 5 7 9 11 13 13 13 14 16 16 16 15 15 14 13 12 11 10 10 9 9 8 8 7 7 7 7 6 7 7 6 7 8 8 11 14 15 15 16 16 16 17 16 15 15 16 16 17 17 18 18 18 18 18 19 19 18 18 21 24 26 26 26 25 23 22 25 25 25 25 24 23 22 23 23 22 20 17
8 7 6 5 4 2 1 3 5 7 9 11 12 12 14 15 16 16 15 15 14 13 13 12 11 11 10 10 10 9 8 9 9 8 8 8 8 7 8 8 9 11 10 10 12 14 14 15 15 16 17 17 17 16 17 17 18 20 19 19 20 19 18 18 17 19 21 25 26 27 28 26 24 25 26 26 26 26 25 24 24 25 25 22 19
8 8 7 6 5 3 2 2 4 5 8 10 10 11 12 14 15 15 15 15 14 14 14 13 13 13 13 12 12 12 11 10 10 10 9 8 8 8 8 6 6 7 7 8 11 12 15 16 16 16 16 16 16 16 17 17 18 19 20 21 22 20 18 17 16 18 20 22 25 26 28 29 28 27 28 28 28 29 28 26 25 26 26 25 22
10 10 8 7 6 5 4 3 3 4 6 8 10 11 11 13 14 14 13 13 13 13 13 13 14 14 14 14 14 14 13 12 11 11 10 9 9 8 7 6 5 5 4 6 7 10 14 16 15 16 15 14 15 14 14 15 15 16 18 20 20 21 20 18 16 17 19 20 22 24 26 30 32 30 29 30 30 31 30 28 26 25 27 27 24
11 11 10 8 7 6 6 5 3 3 5 7 8 10 10 12 13 13 12 12 13 12 12 13 14 15 15 15 15 14 14 14 13 12 11 10 9 8 7 6 6 5 4 5 5 7 11 14 15 16 15 13 13 13 13 14 15 15 17 19 20 20 21 19 16 16 18 19 21 23 24 27 33 34 34 33 32 32 32 31 27 25 26 27 26
12 12 11 10 9 9 8 7 4 2 4 5 6 8 9 10 12 11 11 11 12 12 12 13 14 16 16 16 16 15 15 14 14 13 11 10 9 9 8 7 7 7 6 6 6 9 12 13 15 15 14 13 13 14 16 18 19 19 19 20 21 20 21 21 19 18 20 21 21 23 25 26 30 36 39 37 34 33 34 34 31 27 26 27 27
14 13 12 11 11 10 10 7 4 1 2 4 5 6 8 9 10 10 10 10 11 12 13 14 15 16 16 17 16 16 15 14 14 13 11 10 10 10 10 9 7 8 9 8 6 9 12 12 14 15 15 16 16 15 18 19 20 21 21 21 22 21 22 24 24 24 24 24 24 23 25 26 27 32 38 38 37 36 35 35 34 31 29 28 28
15 14 13 12 12 11 10 6 3 1 2 3 4 6 7 8 9 9 9 11 12 13 14 15 16 16 17 17 17 17 15 14 14 13 12 11 10 10 10 10 9 8 10 10 7 11 17 15 15 18 16 16 17 16 16 18 18 19 21 22 24 25 25 26 27 28 26 25 25 24 24 25 24 26 33 37 38 39 38 36 35 34 33 31 29
17 15 14 13 12 11 9 6 3 1 1 2 4 6 7 7 8 9 10 11 12 13 13 14 15 15 16 17 17 17 16 15 14 13 13 12 11 11 10 10 10 9 9 10 8 11 19 18 15 17 18 18 19 17 16 16 16 17 19 22 24 25 25 25 26 27 26 26 25 23 23 24 24 23 27 32 34 37 39 39 37 36 35 34 31
20 18 16 15 13 11 8 5 3 2 2 2 4 6 7 7 9 10 11 12 13 13 14 14 15 15 15 15 16 16 15 15 15 14 13 13 12 12 11 10 11 10 10 11 11 11 16 20 17 17 17 16 17 16 14 15 16 17 18 20 22 23 23 24 25 25 25 26 25 23 22 22 24 25 25 27 30 33 36 38 40 40 38 36 33
22 20 18 17 15 12 8 6 4 4 3 3 5 6 6 8 9 10 11 12 13 14 14 15 15 16 15 15 15 14 14 15 15 15 14 14 14 14 14 13 12 13 11 11 12 12 14 19 19 17 15 14 14 16 16 17 18 19 19 18 19 20 21 23 25 25 25 26 25 23 21 20 21 24 28 28 28 31 33 36 40 43 42 39 35
23 21 20 18 16 13 10 8 6 5 4 4 5 6 7 8 9 9 10 12 13 14 14 15 15 16 16 15 15 14 13 14 15 15 15 15 15 15 15 15 14 15 14 12 12 12 14 18 20 19 17 18 18 18 18 19 20 20 19 18 18 19 20 21 24 25 26 26 26 24 21 19 18 21 27 31 31 31 32 34 39 43 44 42 37
24 23 21 19 16 14 12 10 8 6 5 5 5 6 6 7 8 9 10 11 12 13 14 14 15 15 15 16 15 14 14 14 15 15 16 16 16 15 14 15 14 14 14 13 12 13 13 16 20 22 20 20 20 19 17 17 18 19 19 19 19 20 21 21 21 23 25 26 25 24 22 20 19 19 23 29 31 30 30 32 37 42 45 44 40
25 24 21 19 16 14 12 10 9 7 6 5 4 5 5 6 7 9 9 11 12 13 13 14 15 15 16 16 16 15 15 16 16 17 17 17 16 16 15 15 15 15 15 14 13 13 15 16 20 21 20 18 19 19 18 16 17 19 20 22 23 23 22 21 20 21 24 25 25 25 23 21 20 20 21 24 27 28 29 31 36 41 45 46 43
26 24 21 18 15 13 12 11 9 7 6 4 3 3 4 6 7 9 10 12 13 13 14 14 15 15 16 17 18 18 17 18 18 19 18 18 18 18 18 18 18 17 17 18 17 17 17 18 19 20 19 17 17 18 18 17 18 19 20 22 23 23 21 20 21 21 21 23 24 25 25 23 22 21 21 22 25 27 28 30 35 41 45 48 47
26 23 20 17 15 13 11 10 9 7 5 4 4 3 5 7 9 11 12 13 14 15 15 16 16 16 17 18 19 19 20 20 20 20 20 20 20 21 21 21 20 20 20 19 19 19 18 18 18 19 19 17 16 18 19 18 18 18 18 18 19 20 20 19 20 21 20 21 22 23 24 24 24 23 22 23 24 25 28 30 33 39 45 49 49
25 22 20 17 15 14 13 10 8 7 6 5 4 4 6 8 10 11 12 12 13 14 15 16 17 17 18 19 20 21 21 21 22 22 22 21 22 23 23 23 23 22 21 19 18 18 18 17 17 18 18 17 16 16 17 17 16 16 16 15 15 18 18 17 19 20 19 20 21 22 23 24 24 24 24 24 24 23 25 28 32 37 42 47 48
24 22 20 18 17 16 14 12 9 8 7 6 4 5 6 8 9 9 10 10 11 12 14 15 17 18 18 20 21 22 22 23 23 24 24 24 24 24 25 25 24 25 24 22 19 18 18 19 18 17 17 18 17 16 17 18 17 18 17 16 16 17 17 15 16 17 16 16 17 18 19 20 21 22 22 22 22 22 22 24 29 35 40 44 47
24 22 20 18 17 16 14 12 10 9 7 5 4 5 6 7 8 9 9 10 10 11 13 15 17 19 20 21 22 22 23 23 24 25 25 25 25 25 26 26 26 26 26 25 22 20 19 19 19 18 17 18 19 19 18 18 19 19 18 18 17 16 14 11 9 12 13 12 11 14 17 18 18 18 19 19 19 20 21 22 24 30 37 41 43
24 22 21 20 18 16 14 12 10 9 7 6 5 5 6 7 8 9 9 10 11 12 14 16 19 20 22 23 23 23 23 24 24 25 26 26 27 27 27 27 27 27 27 27 26 23 21 20 21 21 21 20 21 21 19 19 19 19 19 19 17 15 14 11 9 11 14 13 11 13 16 18 17 17 17 17 18 19 20 21 22 25 31 37 39
23 21 20 19 18 16 13 12 11 9 8 7 6 5 7 8 8 8 9 10 11 13 16 18 20 22 23 24 24 25 25 25 25 25 26 27 28 28 28 28 29 29 28 28 28 27 26 25 24 24 24 22 23 23 21 19 19 19 19 18 18 17 16 15 14 15 16 15 13 13 16 18 17 16 16 17 17 18 19 20 22 23 26 31 34
22 21 20 19 16 14 13 11 11 10 9 8 7 7 8 9 9 9 10 11 13 15 17 20 22 23 24 25 26 26 27 27 27 27 28 28 29 29 29 29 29 29 29 28 28 28 29 29 29 28 27 25 25 26 24 22 22 22 20 19 18 18 17 15 15 17 17 16 15 13 14 17 17 15 15 16 15 17 18 18 19 21 23 26 29
22 21 20 17 14 13 12 12 11 10 9 8 8 9 10 10 11 11 12 14 15 17 19 21 23 23 24 25 26 27 28 28 28 28 28 29 30 30 30 29 29 29 29 28 28 28 29 29 31 31 29 28 27 27 27 25 24 24 24 24 23 22 21 20 19 19 18 19 17 13 13 16 16 12 13 15 14 15 16 16 15 16 18 20 23
22 20 18 15 13 13 13 12 12 11 10 10 10 11 12 12 13 13 14 16 17 18 21 22 23 24 24 25 27 27 28 29 28 28 28 28 30 30 31 31 30 30 30 30 29 30 31 31 32 32 31 31 30 30 29 28 27 26 26 27 26 24 23 21 20 20 20 19 19 17 15 17 17 13 12 13 13 13 14 14 13 12 13 16 19
22 20 18 15 13 14 14 14 13 12 11 12 12 12 14 15 15 15 16 17 18 20 22 23 23 24 24 25 27 28 28 28 28 28 28 28 29 30 30 30 30 30 29 28 28 30 30 32 33 33 33 34 33 33 33 33 33 32 30 31 29 24 19 15 14 18 20 19 19 19 18 18 18 15 12 10 10 10 11 12 12 11 11 13 15
23 20 16 15 14 15 15 14 13 13 13 13 14 15 16 17 16 16 17 18 20 22 24 24 24 24 24 26 27 28 29 29 29 29 28 28 30 31 30 29 29 30 28 27 28 29 29 30 31 31 33 33 33 33 34 34 34 33 33 35 33 26 21 17 16 18 20 20 20 19 18 17 17 15 12 7 6 8 10 11 10 10 10 11 13
21 18 17 16 15 15 15 14 14 14 15 15 15 17 18 18 18 17 17 19 21 23 25 25 25 24 25 27 28 28 29 30 30 29 28 27 29 31 30 29 31 31 29 27 29 29 29 30 30 31 32 33 33 33 34 34 34 33 35 37 35 29 26 24 21 17 14 16 19 20 19 17 17 17 15 8 3 5 8 8 8 9 10 11 12
Wind_Direction
243 242 231 217 199 187 189 194 200 203 200 206 204 196 202 204 205 204 194 187 185 180 184 187 194 201 201 203 200 188 186 191 190 187 185 186 187 183 182 179 174 176 177 193 205 202 206 218 220 222 273 286 236 236 196 183 187 161 154 149 143 144 140 158 214 47 36 37 28 22 31 35 33 35 36 40 45 55 65 66 73 77 74 78 81
246 236 231 224 202 190 193 195 197 202 201 195 186 182 191 199 199 191 179 172 170 175 189 207 229 226 216 212 206 200 196 200 203 199 193 190 192 193 195 196 192 194 195 205 211 201 204 209 210 209 225 287 270 265 222 184 198 183 157 154 165 164 148 156 205 213 7 11 17 17 28 34 28 26 28 34 44 56 66 63 66 76 78 80 82
253 238 229 228 205 192 197 197 196 201 203 195 183 179 183 188 185 178 176 176 179 205 242 262 272 266 239 224 217 215 212 211 216 212 205 199 198 203 207 209 209 208 210 219 224 211 206 206 211 212 215 234 241 258 222 180 205 203 168 173 190 171 154 159 203 222 291 339 358 12 18 25 21 16 18 27 41 56 65 65 66 78 86 85 85
261 256 236 232 210 196 197 200 199 200 202 199 191 187 186 187 186 188 195 206 229 256 274 279 280 278 252 233 228 228 225 221 224 222 216 212 207 211 217 220 219 219 220 225 231 227 217 212 218 222 221 233 244 258 230 193 209 204 183 189 209 187 164 159 198 230 261 307 326 359 9 16 15 6 6 15 32 46 59 68 71 83 95 93 89
266 262 234 227 214 201 199 202 203 202 202 202 199 195 195 198 202 210 221 233 253 269 280 283 284 284 264 243 233 229 230 229 232 232 226 222 219 220 225 229 229 227 228 229 235 236 231 227 225 228 232 234 241 248 232 228 232 211 200 200 218 200 172 161 195 230 255 282 306 329 352 8 7 356 353 358 16 32 50 69 73 87 105 106 101
269 263 228 220 214 207 203 205 206 206 204 202 203 202 201 207 214 223 232 240 255 269 279 282 285 284 272 254 237 229 231 232 237 241 237 231 228 230 231 236 239 237 236 235 236 239 239 239 233 232 238 235 240 250 237 237 258 260 224 213 222 205 178 170 194 223 247 265 285 298 321 352 356 343 339 342 357 19 48 70 75 83 95 106 111
275 272 242 228 222 214 210 210 210 210 210 206 206 207 206 211 220 226 234 242 256 271 282 287 283 276 270 259 244 235 233 233 237 242 242 241 239 240 240 242 246 246 245 243 241 242 241 242 240 238 242 244 246 250 240 238 248 251 241 227 225 213 191 182 192 219 239 254 268 278 290 320 340 331 325 326 334 354 48 80 85 87 87 94 103
297 277 245 239 238 225 216 214 215 215 214 212 210 211 211 215 223 230 237 246 260 271 279 285 282 272 269 267 254 243 240 236 236 239 242 246 249 251 251 249 251 252 252 251 249 248 246 244 242 240 244 252 254 253 246 240 244 240 238 237 229 230 217 197 194 217 238 248 260 271 274 274 316 317 309 310 309 315 37 98 97 98 102 103 101
322 297 261 250 249 241 227 218 221 221 217 218 220 217 213 219 229 234 239 246 258 268 277 281 279 272 267 270 265 252 246 242 239 241 244 247 251 254 256 256 257 257 256 256 254 253 252 249 246 243 244 251 257 260 258 246 243 240 236 241 235 239 241 218 201 213 236 242 251 266 268 261 281 298 293 294 287 285 260 133 111 110 119 120 114
358 339 316 273 261 263 245 223 228 228 220 223 231 230 225 227 231 233 237 247 255 263 277 281 279 275 269 273 269 254 248 247 245 247 248 248 251 254 256 259 261 262 261 260 259 256 255 253 251 247 245 249 254 259 262 255 246 240 235 241 243 242 251 243 220 216 232 238 240 258 266 258 261 276 275 279 270 264 248 177 139 134 134 132 127
20 9 359 335 306 286 252 223 226 236 238 247 260 253 236 230 234 237 238 244 249 256 272 287 289 281 277 283 278 259 252 252 253 253 253 253 254 256 257 259 260 263 264 264 264 262 260 258 255 252 250 250 253 255 259 259 252 243 235 236 243 241 240 247 242 230 235 241 236 250 265 257 249 259 262 268 261 250 243 209 166 154 151 145 139
15 7 7 7 0 341 284 242 246 273 327 330 311 301 250 235 236 237 236 233 243 263 276 289 292 282 281 288 288 274 260 258 258 257 255 255 256 257 258 259 260 261 263 265 266 266 265 263 260 258 256 253 254 255 256 258 257 252 244 236 240 246 242 243 247 240 244 248 236 241 265 260 244 251 257 262 257 243 236 216 181 172 166 158 152
12 352 355 12 23 25 13 342 328 328 0 16 340 320 287 250 230 224 224 225 243 265 272 281 288 280 286 295 295 291 276 264 262 260 257 256 256 258 258 259 260 261 261 262 264 266 267 267 265 263 261 258 256 256 256 257 257 255 251 245 240 245 249 246 245 244 251 256 241 234 258 262 249 248 253 256 255 244 235 219 191 184 179 169 161
34 7 1 29 47 52 48 32 33 39 62 68 24 321 263 246 223 216 218 231 247 258 260 263 270 263 303 322 306 301 292 273 264 260 258 258 257 258 259 260 261 262 262 262 261 263 265 267 268 266 264 262 259 258 258 257 257 255 253 251 247 244 249 250 247 245 246 255 250 238 245 257 252 247 246 251 254 249 239 226 208 196 191 181 169
42 60 60 70 74 70 64 58 60 66 78 84 75 75 90 90 87 150 208 221 240 254 259 251 229 191 75 342 317 317 308 297 284 270 261 259 260 260 261 261 262 263 263 264 264 263 263 264 267 268 268 266 264 261 259 259 259 259 255 254 253 250 249 250 250 249 244 246 254 248 242 248 250 242 239 244 250 251 244 235 223 208 197 190 183
50 60 69 75 72 67 64 65 68 73 85 88 82 82 85 104 84 80 107 131 165 225 263 240 227 209 153 172 102 31 299 329 326 302 277 261 260 262 263 262 263 263 264 266 268 269 268 267 267 269 271 270 269 266 263 262 262 261 259 257 256 255 253 253 253 254 249 244 251 254 246 244 248 241 234 236 244 248 247 241 231 218 207 202 200
54 51 52 53 56 60 62 70 76 76 82 85 84 84 85 84 80 85 99 105 111 116 109 160 219 215 204 187 110 103 223 357 336 313 307 294 276 271 269 266 265 265 267 270 271 272 272 273 272 271 272 272 272 270 268 267 265 262 261 260 258 256 255 255 255 255 255 248 246 252 247 239 244 244 232 230 238 243 245 243 234 224 214 211 208
37 37 35 40 48 57 62 70 77 75 74 77 78 76 74 72 68 73 83 97 113 114 102 102 141 181 202 217 234 236 238 336 337 298 316 316 307 311 306 293 283 277 276 279 278 276 276 280 280 278 277 275 274 273 272 271 269 266 265 264 263 259 256 255 255 255 258 254 246 247 244 235 238 244 236 229 232 237 242 241 233 226 217 211 211
43 46 41 42 44 48 57 61 65 68 66 64 65 63 64 65 61 63 67 76 99 98 85 90 107 104 91 172 254 264 251 281 279 274 315 308 297 314 331 341 332 318 307 301 294 286 286 290 288 286 283 280 278 277 276 275 274 271 269 268 266 262 259 255 254 252 254 256 251 247 246 241 238 241 240 234 231 232 238 238 232 224 217 212 211
65 58 50 42 35 40 50 57 63 65 62 60 61 58 57 58 58 60 61 63 73 82 80 79 85 82 71 76 70 46 281 254 247 246 262 284 296 304 317 329 325 322 321 319 312 301 302 304 299 295 290 286 284 283 282 280 278 276 274 272 269 265 260 256 254 252 248 250 252 249 248 246 241 238 238 236 232 229 231 234 230 222 216 213 210
82 63 53 47 49 60 66 68 68 64 60 55 52 48 46 47 48 49 53 58 61 67 72 69 67 69 69 74 78 72 82 238 248 255 258 268 286 299 318 323 320 315 317 320 319 315 312 311 308 304 300 297 296 295 291 286 283 282 281 278 274 269 264 257 252 251 248 244 246 249 247 244 242 238 238 238 233 227 226 227 226 221 215 212 209
108 83 66 63 72 79 77 71 65 58 51 45 43 45 45 46 46 46 49 53 55 56 62 64 62 60 56 60 60 55 64 63 358 346 314 278 273 285 309 317 315 310 314 316 315 312 309 307 305 300 297 298 301 304 303 298 292 288 287 285 279 275 270 263 254 251 250 245 240 243 244 243 241 238 240 238 229 224 225 226 223 219 215 213 209
145 116 91 80 84 85 74 66 58 50 43 40 44 48 50 50 50 50 50 51 51 49 53 55 53 52 47 47 49 48 50 42 8 352 338 304 298 303 306 309 301 298 308 315 311 306 306 306 305 301 297 293 292 297 305 306 300 292 291 290 283 279 278 270 259 252 251 248 241 238 239 241 241 240 239 232 223 218 221 224 225 220 214 214 211
170 159 134 106 98 84 64 55 49 44 40 40 47 50 50 48 46 45 45 44 42 40 43 43 39 40 39 38 39 42 41 31 12 355 343 325 312 301 304 312 303 293 307 316 310 306 306 305 305 306 304 298 290 289 295 301 302 295 290 290 285 283 286 281 266 255 251 250 244 238 236 236 238 240 238 229 223 217 214 217 223 221 215 213 212
182 177 171 156 147 103 52 41 37 37 36 37 43 46 44 42 39 39 38 37 34 33 37 38 34 34 32 28 25 24 23 16 8 1 352 341 332 319 312 313 299 293 305 311 307 306 304 301 304 308 306 303 299 293 290 296 305 301 293 292 291 288 289 286 276 264 254 251 248 240 236 235 235 237 236 230 226 220 214 212 217 220 217 213 213
188 181 179 179 184 187 25 21 25 29 27 28 34 36 35 34 33 33 35 35 32 32 34 33 32 32 26 21 18 11 4 357 354 352 353 354 350 340 327 315 298 294 299 301 302 301 296 298 306 306 300 302 304 298 290 292 302 304 300 298 295 291 289 285 281 277 266 257 252 244 237 235 235 237 236 231 226 223 220 215 216 221 220 216 215
196 187 188 191 197 211 263 329 2 15 16 20 28 29 27 26 25 26 31 32 30 31 30 27 25 24 21 16 11 5 358 350 343 338 337 338 337 336 335 324 303 297 299 302 300 289 285 294 303 301 297 302 307 302 294 289 290 295 299 298 293 290 290 286 283 287 283 269 258 250 242 235 233 236 236 232 226 225 225 221 219 222 222 220 218
200 193 193 198 207 225 245 271 319 352 3 13 21 22 21 20 18 19 23 25 24 22 19 16 13 9 6 3 359 357 354 349 343 335 326 320 318 320 325 321 308 301 295 296 291 285 287 292 299 301 299 302 306 304 300 295 292 295 297 296 295 292 290 291 291 293 293 283 266 258 252 242 235 235 237 234 230 228 226 223 221 223 224 222 220
204 198 197 202 211 225 236 245 267 326 356 9 15 16 14 11 11 13 14 12 11 10 7 3 358 353 351 350 348 346 344 342 340 336 329 322 315 309 306 301 295 293 290 284 275 277 287 291 293 295 294 296 300 299 296 296 297 299 298 296 297 297 295 295 296 294 293 291 278 267 264 252 238 234 234 233 232 231 227 223 223 225 226 225 222
209 203 201 207 214 221 226 229 238 295 359 16 20 16 11 7 7 8 6 2 1 0 356 353 350 347 347 347 346 344 342 341 340 338 335 331 325 318 310 296 279 274 278 286 279 270 278 287 289 290 297 303 304 301 295 292 292 292 292 292 291 295 298 298 297 294 292 294 288 276 269 262 248 239 237 234 232 233 230 224 225 226 226 227 226
213 208 206 211 216 218 218 217 217 264 25 31 26 19 12 6 6 7 4 360 358 355 352 350 348 348 347 347 347 346 344 342 340 340 338 334 331 325 321 314 295 278 276 280 279 269 271 280 287 293 308 313 306 301 294 290 293 290 286 286 286 287 290 292 293 293 291 292 292 284 273 267 260 251 246 241 233 233 233 228 226 227 228 230 229
217 212 211 215 217 216 213 208 198 131 47 35 24 14 6 3 5 7 3 359 358 356 352 349 347 345 343 343 342 343 342 340 339 339 337 335 331 325 322 320 314 303 292 286 279 274 274 275 279 284 296 308 308 306 299 293 294 293 287 285 285 284 282 284 287 288 288 288 289 286 275 269 266 257 252 249 239 231 231 231 228 228 231 232 231
218 216 215 217 216 212 207 202 198 197 0 15 11 359 353 357 1 0 360 359 359 358 353 350 347 343 340 338 337 339 338 337 336 335 333 333 329 323 319 315 312 318 315 303 295 287 283 280 279 278 284 298 304 305 307 303 297 295 293 287 285 285 284 285 285 283 284 286 287 287 279 270 266 257 250 252 247 234 231 233 231 230 231 232 232
216 216 216 214 211 207 203 203 219 249 289 328 338 337 338 346 351 355 359 360 359 357 353 349 347 342 339 336 335 336 335 332 332 330 328 327 326 321 316 311 306 310 318 310 300 294 290 289 289 287 286 293 296 294 302 311 309 305 300 293 288 286 286 288 288 285 285 286 287 287 283 273 264 254 246 251 253 243 235 234 233 232 232 231 230
214 213 212 209 204 203 206 218 241 263 285 306 316 321 328 337 346 353 356 355 353 352 349 347 345 342 338 335 333 332 329 326 325 325 324 322 320 315 310 307 303 302 308 307 296 291 293 294 296 297 294 294 293 291 292 296 303 308 307 302 296 290 285 285 287 287 286 287 287 286 283 277 267 254 245 248 253 249 242 237 233 233 233 231 228
212 208 205 203 200 201 210 224 238 256 278 295 307 316 326 337 344 348 348 346 344 343 342 342 341 339 336 333 331 330 326 320 317 318 318 317 315 311 307 303 300 298 299 299 293 290 293 296 297 298 297 296 294 293 293 290 288 294 300 302 300 296 289 283 283 286 287 289 290 288 285 282 276 260 248 248 252 252 248 241 234 232 232 231 228
210 204 199 197 198 202 210 219 227 239 260 279 295 314 329 338 342 342 341 338 335 335 334 333 332 331 330 327 326 326 322 315 312 311 310 310 308 306 303 302 300 299 297 294 290 289 291 294 296 297 299 299 296 291 291 291 283 283 289 295 298 300 298 290 284 284 286 289 291 291 288 283 279 270 256 251 252 254 252 245 237 233 232 230 227
205 200 197 196 198 202 206 210 215 221 233 258 286 308 324 332 333 333 329 326 326 324 323 322 322 321 320 319 318 317 313 309 307 307 307 306 303 301 300 300 300 300 298 295 292 291 291 291 292 294 296 298 298 293 289 288 283 280 282 288 293 297 299 298 294 288 285 285 287 288 288 284 280 275 266 258 254 254 254 249 241 236 233 230 225
202 198 197 197 199 202 202 200 202 206 213 232 263 286 304 312 315 316 316 317 317 315 315 315 315 315 314 312 311 309 305 303 301 302 302 301 300 299 298 297 297 295 293 292 291 290 289 287 285 287 289 290 291 292 290 288 285 279 276 280 287 291 294 299 301 298 293 288 284 284 286 287 285 279 273 267 260 257 256 252 244 238 235 232 226
200 199 198 199 198 197 196 193 192 192 193 201 219 250 283 302 309 312 313 313 312 311 311 310 310 309 308 306 305 303 301 299 298 297 297 296 297 296 296 297 296 293 290 289 288 287 284 282 279 281 284 286 285 287 291 291 284 275 270 270 277 285 292 298 300 299 297 294 287 281 281 283 284 282 280 276 270 264 259 254 246 239 236 233 228
198 199 200 201 197 191 185 183 183 185 190 199 219 263 295 310 317 319 318 316 314 313 312 311 309 306 303 301 299 298 297 296 294 292 291 291 292 291 292 294 293 291 289 286 285 285 282 279 278 279 280 281 282 284 287 286 282 279 278 272 270 278 288 296 299 297 295 293 290 285 282 282 284 285 286 284 281 276 267 256 246 239 236 234 231
194 194 196 197 196 190 183 180 182 190 200 213 241 286 311 325 332 337 338 334 329 324 322 320 318 314 311 306 302 299 297 294 291 290 288 288 287 286 287 288 288 287 285 283 280 278 279 278 277 277 277 278 278 279 279 280 284 289 291 289 284 281 283 289 295 295 291 286 287 291 291 288 287 289 291 291 290 286 278 265 251 243 238 236 233
190 191 191 190 191 189 185 184 189 198 209 226 259 296 322 338 346 352 357 354 348 343 338 334 330 327 323 318 313 307 301 296 293 290 289 288 285 284 284 283 282 281 279 278 277 274 273 273 273 272 272 274 276 276 276 279 282 284 287 293 294 286 276 272 278 286 285 281 288 297 296 292 289 289 292 296 293 284 277 272 262 250 243 240 236
184 185 185 186 186 186 187 188 193 203 215 237 264 297 324 338 347 354 0 0 355 350 346 341 336 333 328 323 319 313 306 301 297 292 289 287 285 284 283 282 280 278 275 273 272 271 270 269 269 267 266 270 275 274 274 277 280 282 284 288 291 285 275 266 258 265 273 280 289 291 289 288 286 287 292 296 293 283 274 271 267 257 249 244 241
179 179 181 184 184 185 190 193 197 209 226 247 267 296 316 324 334 344 351 352 348 345 343 340 337 334 329 324 319 314 311 306 300 294 290 288 286 284 283 281 279 276 273 271 269 268 268 267 266 264 261 264 269 271 273 275 276 278 279 280 282 282 278 270 264 268 272 276 279 277 276 278 279 284 290 292 288 282 275 271 267 261 253 247 243
176 178 179 182 183 189 199 203 210 223 237 250 267 292 306 311 318 327 334 337 335 335 334 334 333 331 328 324 317 313 311 308 302 297 293 290 288 286 284 281 278 275 273 271 268 266 265 264 264 264 264 263 263 267 271 272 272 273 274 275 277 279 277 272 274 278 276 272 270 266 267 272 272 275 282 284 282 279 277 275 269 263 257 251 246
177 179 179 181 189 198 206 215 224 232 239 249 267 287 297 302 307 313 320 324 326 326 326 327 328 326 325 321 316 311 309 306 303 299 296 293 290 287 284 281 278 275 272 269 267 266 264 263 263 264 266 265 264 265 268 269 271 271 270 271 270 270 274 278 281 280 274 269 262 249 253 267 268 266 272 275 276 277 278 278 274 265 260 256 250
175 178 180 187 198 205 212 223 232 236 243 254 267 282 293 298 300 304 312 317 318 318 319 321 321 320 320 318 313 309 306 305 303 301 297 294 291 288 285 282 279 276 273 271 270 267 265 264 264 264 264 265 265 265 265 265 266 270 274 273 268 265 268 273 274 272 269 265 256 241 243 261 263 255 254 260 265 271 274 275 273 269 262 256 250
172 176 183 191 202 211 217 225 233 242 251 258 265 279 290 293 294 298 306 311 312 312 313 315 315 314 315 315 311 308 304 302 302 301 298 294 291 289 287 285 282 278 275 274 273 270 268 268 267 266 265 265 264 265 264 263 263 267 271 271 269 268 268 266 263 265 264 260 253 242 240 253 257 245 234 240 251 260 265 266 266 264 260 253 246
170 175 185 194 203 213 220 228 240 251 259 263 267 277 286 290 290 295 303 307 307 308 309 310 311 310 311 312 311 306 300 298 298 298 296 293 289 288 288 287 284 280 278 277 276 274 273 271 269 267 265 265 264 263 263 262 260 259 258 259 261 263 264 261 259 263 263 258 250 241 234 239 244 232 213 207 230 240 246 254 255 249 244 237 234
170 178 188 194 202 213 224 236 247 255 263 268 272 278 286 289 289 293 302 305 303 306 308 308 308 308 308 309 308 303 299 297 295 295 294 291 287 286 285 284 281 279 279 279 277 276 275 272 268 265 264 264 264 264 263 262 259 254 251 252 252 251 251 253 254 257 262 257 244 233 227 228 231 223 207 189 193 230 230 235 235 229 224 217 214